Weather History for Miramar MCAS, CA

Change the Weather History Date:

Saturday, September 28, 2013

  Actual Average Record
Temperature  
Mean Temperature 68 °F -  
Max Temperature 87 °F 75 °F 90 °F (2005)
Min Temperature 50 °F 57 °F 50 °F (2005)
Cooling Degree Days 4    
Growing Degree Days 18 (Base 50)    
Moisture  
Dew Point 31 °F    
Average Humidity 28    
Maximum Humidity 49    
Minimum Humidity 8    
Precipitation  
Precipitation 0.00 in - - ()
Sea Level Pressure  
Sea Level Pressure 29.98 in    
Wind  
Wind Speed 5 mph (North)    
Max Wind Speed 13 mph    
Max Gust Speed 20 mph    
Visibility 10 miles    
Events      
Averages and records for this station are not official NWS values.
T = Trace of Precipitation, MM = Missing Value Source: NWS Daily Summary

Daily Weather History Graph

Daily Weather History Graph

Search for Another Location

Airport:

Trip Planner

Search our weather history database for the weather conditions in past years. The results will help you decide how hot, cold, wet, or windy it might be!

Date:

Astronomy

Sep. 28, 2013 Rise Set
Actual Time 6:40 AM PDT 6:36 PM PDT
Civil Twilight 6:16 AM PDT 7:01 PM PDT
Nautical Twilight 5:47 AM PDT 7:29 PM PDT
Astronomical Twilight 5:18 AM PDT 7:58 PM PDT
Moon 12:48 AM PDT (9/28) 2:43 PM PDT (9/28)
Length of Visible Light 12h 44m
Length of Day
11h 55m
Waning Crescent, 35% of the Moon is Illuminated
Sep 28
Waning Crescent
Oct 4
New
Oct 11
First Quarter
Oct 18
Full
Oct 26
Last Quarter

Hourly Weather History & Observations

Time (PDT) Temp. Dew Point Humidity Pressure Visibility Wind Dir Wind Speed Gust Speed Precip Events Conditions
12:55 AM 57.9 °F 37.0 °F 46% 29.97 in 10.0 mi East 5.8 mph - N/A   Clear
1:55 AM 57.0 °F 35.1 °F 44% 29.97 in 10.0 mi ENE 6.9 mph - N/A   Clear
2:55 AM 57.0 °F 33.1 °F 40% 29.97 in 10.0 mi ENE 5.8 mph - N/A   Clear
3:55 AM 55.9 °F 28.9 °F 36% 29.95 in 10.0 mi East 5.8 mph - N/A   Clear
4:55 AM 59.0 °F 27.0 °F 29% 29.96 in 10.0 mi NE 4.6 mph - N/A   Clear
5:55 AM 55.9 °F 24.1 °F 29% 29.96 in 10.0 mi North 3.5 mph - N/A   Clear
6:55 AM 50.0 °F 26.1 °F 39% 29.98 in 10.0 mi Calm Calm - N/A   Clear
7:55 AM 66.0 °F 26.1 °F 22% 29.99 in 10.0 mi Calm Calm - N/A   Clear
8:55 AM 75.9 °F 25.0 °F 15% 29.99 in 10.0 mi Calm Calm - N/A   Clear
9:55 AM 81.0 °F 24.1 °F 12% 30.00 in 10.0 mi Variable 3.5 mph - N/A   Clear
10:55 AM 84.0 °F 24.1 °F 11% 30.00 in 10.0 mi NW 5.8 mph - N/A   Clear
11:55 AM 87.1 °F 19.0 °F 8% 29.99 in 10.0 mi NW 8.1 mph - N/A   Clear
12:55 PM 87.1 °F 21.0 °F 9% 29.98 in 10.0 mi West 11.5 mph 19.6 mph N/A   Clear
1:55 PM 84.0 °F 28.0 °F 13% 29.96 in 10.0 mi WNW 12.7 mph - N/A   Clear
2:55 PM 82.0 °F 30.9 °F 16% 29.96 in 10.0 mi NW 12.7 mph - N/A   Clear
3:55 PM 80.1 °F 39.9 °F 24% 29.95 in 10.0 mi WNW 11.5 mph - N/A   Clear
4:55 PM 79.0 °F 35.1 °F 20% 29.96 in 10.0 mi WNW 8.1 mph - N/A   Clear
5:55 PM 75.9 °F 35.1 °F 23% 29.96 in 10.0 mi WNW 6.9 mph - N/A   Clear
6:55 PM 71.1 °F 35.1 °F 27% 29.98 in 10.0 mi NW 3.5 mph - N/A   Clear
7:55 PM 62.1 °F 39.0 °F 43% 30.00 in 10.0 mi West 3.5 mph - N/A   Clear
8:55 PM 61.0 °F 35.1 °F 38% 30.01 in 10.0 mi NNE 3.5 mph - N/A   Clear
9:55 PM 57.9 °F 35.1 °F 42% 30.02 in 10.0 mi Calm Calm - N/A   Clear
10:55 PM 55.0 °F 36.0 °F 49% 30.04 in 10.0 mi East 3.5 mph - N/A   Clear
11:55 PM 55.9 °F 36.0 °F 47% 30.04 in 10.0 mi East 3.5 mph - N/A   Clear